Find Kosmos-2416

NORAD ID: 28908 Int'l Des: 2005-048 Owner: KVR Country: RU operational
LEOCIRCULARPOLAR

Current View

Loading 3D Globe...

About Kosmos-2416

Description loading...

Upcoming Passes

Passes for default location (London). Set your location on the main map for personalized predictions.

Altitude History

Loading altitude history...

Two-Line Element Set

1 28908U 05048A 26149.55066747 .00000034 00000-0 14373-3 0 9994
2 28908 82.4678 319.5802 0007652 204.8240 216.6247 12.55600370936568
Epoch: May 29, 2026 • Age: 17 hours

Current Status

Altitude 1449.1 km
Velocity 7.14 km/s
Sub-Earth Point 14.50°N, 19.38°W
Launch Date Dec 21, 2005
Age 20.4 years
Type other

Technical Details

Classification Payload
Mass 280.00 kg
Dry Mass 280.00 kg
Total Mass 280.00 kg
Length 1.60 m
Diameter 0.80 m
Span 7.00 m
Shape Cyl + Ant
Manufacturer NPOPMR
Bus Type Strela-3M
Phase Status In Orbit
Owner/State KVR/RU

Most Searched